Location: Sternwarte auf dem Internationalen Platz Vogelsang IP
(50.5721°N, 6.4398°E)
Time: 05:17:59
(UTC+01:00)

Transit 2A Rocket - Pass Details

Date: 17 December 2025
Orbit: 581 x 903 km, 66.7° (Epoch: 13 January)

Event Time Altitude Azimuth Distance (km) Brightness Sun altitude
Rises 10:16:19 0° 260° (W) 3,402 8.1 10.3°
Reaches altitude 10° 10:19:06 10° 271° (W) 2,508 7.4 10.6°
Maximum altitude 10:24:07 28° 330° (NNW) 1,604 6.2 11.0°
Drops below altitude 10° 10:29:17 10° 29° (NNE) 2,591 7.5 11.4°
Sets 10:32:12 0° 40° (NE) 3,533 8.2 11.6°
